{"data":{"norad_id":68225,"epoch":"2026-09-19T21:35:15.821952Z","epoch_age_seconds":104064,"freshness":"FRESH","line1":"1 68225U 26053U   26262.89948868  .00011156  00000+0  34737-3 0  9997","line2":"2 68225  97.2861 136.7226 0001951  91.2084 268.9382 15.33444467 29960","mean_motion":15.33444467,"eccentricity":0.0001951,"inclination_deg":97.2861,"raan_deg":136.7226,"arg_perigee_deg":91.2084,"mean_anomaly_deg":268.9382,"bstar":0.00034737,"rev_number":2996,"period_min":93.906237297082,"perigee_km":464.20955800016,"apogee_km":466.87996262303,"semimajor_km":6843.6817603116,"source":"CELESTRAK","updated_at":"2026-09-20T09:00:43.836531Z"}}